User: anonymous   Login
Location: Unspecified
(0.0000°N, 0.0000°E)
Time: 07:17:15
(UTC+00:00)
Language:

Kosmos-2154 - Orbit

View from above orbital plane
View from above orbital plane
View from above satellite
View from above satellite

Ground track
Ground track

The orbit data is extracted from the following two-line orbital elements,

1 21666U 91059A   17178.76809709 +.00000018 +00000-0 +36686-5 0  9998
2 21666 082.9059 022.0930 0024183 322.4405 154.5050 13.73301521295114
Epoch (UTC): 27 June 2017 18:26:03
Eccentricity: 0.0024183
inclination: 82.9059°
perigee height: 970 km
apogee height: 1005 km
right ascension of ascending node: 22.0930°
argument of perigee: 322.4405°
revolutions per day: 13.73301521
mean anomaly at epoch: 154.5050°
orbit number at epoch: 29511

The dashed part of the orbit path shows where the satellite is in the earth's shadow,  

DLR